EST,Max TemperatureF,Mean TemperatureF,Min TemperatureF,Max Dew PointF,MeanDew PointF,Min DewpointF,Max Humidity, Mean Humidity, Min Humidity, Max Sea Level PressureIn, Mean Sea Level PressureIn, Min Sea Level PressureIn, Max VisibilityMiles, Mean VisibilityMiles, Min VisibilityMiles, Max Wind SpeedMPH, Mean Wind SpeedMPH, Max Gust SpeedMPH,PrecipitationIn, CloudCover, Events, WindDirDegrees
2013-11-1,71,62,53,55,49,38,80,56,31,29.82,29.70,29.60,10,9,2,28,9,41,0.39,6,Rain,255
2013-11-2,57,51,44,40,35,28,76,56,35,29.99,29.82,29.71,10,10,10,21,8,31,T,3,,275
2013-11-3,49,44,38,34,31,25,73,58,42,30.36,30.18,30.00,10,10,10,13,5,18,0.00,6,,312
2013-11-4,55,47,38,27,25,22,59,47,35,30.48,30.43,30.38,10,10,10,13,6,18,0.00,0,,138
2013-11-5,59,49,38,46,31,21,71,50,28,30.51,30.44,30.38,10,10,10,20,5,25,0.00,1,,119
2013-11-6,69,61,52,47,46,45,77,61,44,30.40,30.24,30.05,10,10,10,20,9,29,0.00,3,,170
2013-11-7,59,48,36,50,40,25,86,73,59,30.18,30.05,29.94,10,10,7,18,10,26,0.06,7,Rain,283
2013-11-8,47,40,33,25,22,18,69,51,33,30.33,30.27,30.19,10,10,10,20,7,28,0.00,3,,292
2013-11-9,58,46,33,21,19,14,56,37,17,30.30,30.22,30.14,10,10,10,20,7,28,0.00,0,,247
2013-11-10,57,46,35,32,24,17,58,41,23,30.30,30.19,30.12,10,10,10,25,10,40,0.00,0,,283
2013-11-11,66,50,33,24,14,-1,61,34,7,30.32,30.20,30.07,10,10,10,13,5,18,0.00,1,,248
2013-11-12,51,38,24,36,22,12,74,49,24,30.50,30.25,30.01,10,8,2,16,8,24,0.01,8,Rain-Snow,324
2013-11-13,36,29,21,18,14,12,74,57,40,30.58,30.50,30.41,10,10,5,16,7,21,T,4,Snow,295
2013-11-14,55,41,26,13,9,2,63,40,16,30.44,30.35,30.25,10,10,10,14,7,20,0.00,0,,254
2013-11-15,61,51,40,44,26,8,80,51,21,30.27,30.21,30.16,10,10,7,15,4,23,0.18,3,Rain,236
2013-11-16,64,54,44,48,44,39,93,75,56,30.25,30.19,30.12,10,5,0,18,5,29,0.00,5,Fog,127
2013-11-17,71,63,54,55,50,47,78,63,47,30.09,29.94,29.77,10,10,2,29,10,46,0.22,4,Rain,180
2013-11-18,59,50,41,54,36,22,71,51,30,30.04,29.92,29.81,10,10,3,22,11,36,0.11,2,Rain,290
2013-11-19,45,38,31,25,22,21,64,54,43,30.29,30.17,30.04,10,10,10,17,7,24,0.00,2,,340
2013-11-20,47,40,32,24,22,21,63,50,37,30.40,30.34,30.27,10,10,10,17,7,24,0.00,0,,114
2013-11-21,62,50,37,46,38,24,76,62,47,30.44,30.37,30.31,10,10,10,15,7,23,0.00,1,,159
2013-11-22,63,57,50,54,50,46,86,74,62,30.28,30.20,30.11,10,9,3,18,8,25,0.21,8,Rain,258
2013-11-23,50,38,26,45,29,11,89,68,47,30.28,30.19,30.14,10,7,0,21,10,30,T,7,Fog-Snow,305
2013-11-24,26,21,15,13,4,-2,62,47,32,30.51,30.40,30.24,10,9,4,21,8,30,T,3,Snow,314
2013-11-25,42,29,15,22,9,4,73,49,24,30.51,30.39,30.26,10,10,9,8,2,12,T,3,Snow,163
2013-11-26,47,39,31,41,37,24,89,83,76,30.22,29.88,29.67,10,5,0,17,7,28,1.83,8,Fog-Rain,162
2013-11-27,36,28,19,32,19,10,85,76,67,30.21,29.85,29.68,10,3,0,23,12,33,0.16,8,Rain-Snow,305
2013-11-28,36,27,18,14,11,3,74,51,28,30.45,30.34,30.13,10,9,5,15,6,21,T,4,Snow,270
2013-11-29,41,33,24,21,17,10,68,54,39,30.58,30.53,30.45,10,10,10,13,5,21,0.00,1,,264
2013-11-30,44,36,28,21,19,17,63,52,40,30.55,30.45,30.29,10,10,10,17,6,23,0.00,0,,132